TimeMST,TemperatureF,Dew PointF,Humidity,Sea Level PressureIn,VisibilityMPH,Wind Direction,Wind SpeedMPH,Gust SpeedMPH,PrecipitationIn,Events,Conditions,WindDirDegrees,DateUTC
12:56 AM,-9.0,-14.1,79,30.31,-9999.0,WNW,13.8,-,N/A,,Unknown,290,2013-12-09 07:56:00
1:56 AM,-9.0,-15.0,75,30.30,-9999.0,West,11.5,-,N/A,,Unknown,280,2013-12-09 08:56:00
2:56 AM,-9.9,-16.1,74,30.30,-9999.0,WNW,18.4,-,N/A,,Unknown,290,2013-12-09 09:56:00
3:56 AM,-9.9,-16.1,74,30.29,-9999.0,West,13.8,-,N/A,,Unknown,280,2013-12-09 10:56:00
4:56 AM,-8.0,-15.0,71,30.28,-9999.0,West,18.4,-,N/A,,Unknown,280,2013-12-09 11:56:00
5:56 AM,-9.0,-15.0,75,30.27,-9999.0,West,8.1,-,N/A,,Unknown,260,2013-12-09 12:56:00
6:56 AM,-7.1,-14.1,72,30.23,-9999.0,WSW,12.7,-,N/A,,Unknown,240,2013-12-09 13:56:00
7:56 AM,-6.0,-13.0,72,30.21,-9999.0,WSW,13.8,-,N/A,,Unknown,240,2013-12-09 14:56:00
8:56 AM,-8.0,-15.0,71,30.21,-9999.0,SSW,16.1,-,N/A,,Unknown,210,2013-12-09 15:56:00
9:56 AM,-2.9,-9.9,72,30.19,-9999.0,SSW,12.7,-,N/A,,Unknown,210,2013-12-09 16:56:00
10:56 AM,1.0,-7.1,69,30.12,-9999.0,South,13.8,-,N/A,,Unknown,190,2013-12-09 17:56:00
11:56 AM,3.9,-5.1,66,30.06,-9999.0,SSW,16.1,-,N/A,,Unknown,210,2013-12-09 18:56:00
12:56 PM,7.0,-2.0,67,30.01,-9999.0,South,17.3,-,N/A,,Unknown,190,2013-12-09 19:56:00
1:56 PM,10.0,1.0,67,29.97,-9999.0,SSW,16.1,-,N/A,,Unknown,210,2013-12-09 20:56:00
2:56 PM,16.0,10.9,81,29.93,-9999.0,SW,21.9,27.6,N/A,,Unknown,230,2013-12-09 21:56:00
3:56 PM,21.0,16.0,81,29.92,-9999.0,West,29.9,39.1,N/A,,Unknown,270,2013-12-09 22:56:00
4:56 PM,19.9,15.1,81,29.92,-9999.0,West,26.5,36.8,0.02,,Unknown,270,2013-12-09 23:56:00
5:56 PM,19.9,15.1,81,29.93,-9999.0,West,21.9,32.2,N/A,,Unknown,280,2013-12-10 00:56:00
6:56 PM,19.9,14.0,78,29.96,-9999.0,WNW,23.0,-,N/A,,Unknown,290,2013-12-10 01:56:00
7:56 PM,19.0,14.0,81,29.99,-9999.0,NW,33.4,47.2,N/A,,Unknown,320,2013-12-10 02:56:00
8:56 PM,12.0,6.1,77,30.06,-9999.0,NW,34.5,42.6,N/A,,Unknown,320,2013-12-10 03:56:00
9:56 PM,10.0,3.9,76,30.09,-9999.0,NW,23.0,-,0.01,,Unknown,320,2013-12-10 04:56:00
10:56 PM,8.1,1.9,76,30.14,-9999.0,NNW,17.3,-,N/A,,Unknown,330,2013-12-10 05:56:00
11:56 PM,7.0,1.9,80,30.15,-9999.0,NW,8.1,-,N/A,,Unknown,320,2013-12-10 06:56:00